ラーソン彗星

382P/Larson (2022)

English version
Home page
Updated on September 18, 2021

---------------------------------------------------------------------

・ プロフィール

符号 382P/2019 K3
検出日 2019年5月29日、5月31日
検出光度 21.9等、22.0等
検出者 E. Schwab (Egelsbach, Germany), G. V. Williams (Pan-STARRS1 survey)

・ 写真集

・ 軌道要素

Epoch 2022 Mar. 2.0 TT = JDT 2459640.5
T 2022 Feb. 17.40835 TT                                 Rudenko
q   4.4197530            (2000.0)            P               Q
n   0.05987762     Peri.  170.98568     +0.96485789     +0.26229927
a   6.4708253      Node   173.74063     -0.24920009     +0.93240077
e   0.3169723      Incl.    8.31058     -0.08335808     +0.24865216
P  16.5
From 274 observations 2007 Sept. 4-2021 Apr. 13, mean residual 1".0.

・ 光度変化

        m1 = 6.0 + 5 logΔ + 15.0 log r

---------------------------------------------------------------------

軌道要素はM.P.E.C. 2021-J28に掲載されたものです。
光度グラフはComet for Windowsで作成したものです。

---------------------------------------------------------------------

Copyright(C) Seiichi Yoshida (comet@aerith.net). All rights reserved.